Theta_e
343 342 343 348 349 349 349 351 353 354 353 353 353 353 352 352 351 351 351 350 350 350 350 350 350 350 350 351 351 351 351 351 351 350 349 349 348 348 347 345 345 346 345 346 345 344 344 343 344 345 345 345 346 345 344 344 345 346 346 347 347 347 347 346 347 347 346 346 348 350 348 348 349 350 347 348 347 348 346 347 347 344 344 347 350
342 343 343 345 350 349 350 351 353 354 353 353 353 352 352 351 351 350 350 350 350 350 350 350 350 350 350 350 351 351 351 351 351 350 350 349 348 347 346 346 346 346 344 344 344 343 341 341 341 343 345 344 344 344 343 343 343 343 344 345 345 346 345 345 345 346 345 345 345 346 346 348 348 348 349 349 347 347 345 345 345 344 344 347 348
344 344 344 345 349 350 350 351 351 353 353 353 353 352 351 351 351 351 350 351 351 351 350 350 349 349 348 349 349 349 350 350 349 349 350 349 348 347 346 346 345 343 344 343 342 342 340 338 339 341 342 342 342 342 342 342 342 341 341 343 343 345 345 344 344 345 345 345 344 344 344 345 346 347 347 346 347 346 343 343 343 343 342 347 345
344 346 346 346 346 349 352 352 352 352 352 352 352 351 351 351 350 350 350 350 351 351 350 349 349 349 348 349 348 349 349 350 349 349 349 349 348 346 346 345 344 342 343 343 342 341 339 337 337 340 340 340 340 340 340 340 340 341 340 341 343 344 344 344 344 345 345 344 343 342 341 339 341 343 346 346 346 345 343 343 342 342 343 343 344
344 346 347 347 348 349 351 352 352 352 352 352 352 351 351 350 350 350 350 350 350 350 350 349 349 349 348 348 348 347 348 349 349 349 349 349 348 347 346 345 344 343 342 342 341 340 338 337 337 339 339 338 338 339 339 339 340 340 341 342 343 342 343 343 343 344 344 343 341 340 338 339 339 343 346 347 346 344 343 343 343 343 340 339 339
344 346 347 347 346 347 349 351 351 352 352 352 352 351 351 350 350 350 350 349 350 349 349 349 348 348 348 348 348 348 347 348 348 348 348 347 347 346 345 345 344 343 342 341 340 339 338 336 336 339 338 337 337 337 338 339 340 341 341 341 341 342 342 341 342 341 341 341 340 338 338 338 339 339 345 345 345 343 342 343 342 340 338 338 337
345 346 347 346 346 345 348 351 352 351 352 352 351 351 350 350 350 349 349 349 349 348 349 348 348 348 347 347 347 347 347 347 348 348 348 348 347 346 345 345 344 343 342 341 339 338 337 334 335 338 338 337 337 337 338 339 339 340 340 341 342 342 341 341 340 339 338 337 336 337 337 337 338 339 344 344 343 340 339 338 337 336 337 337 336
345 346 346 346 345 346 346 350 351 351 351 352 351 350 350 349 350 349 349 349 349 348 349 348 348 347 348 348 348 347 346 346 347 347 347 347 346 345 345 344 344 343 342 340 338 337 336 333 334 337 337 337 336 337 338 338 339 340 341 341 341 341 340 340 340 339 338 335 335 335 336 336 336 337 343 343 342 339 338 337 336 336 336 336 334
345 346 347 346 345 344 346 346 350 351 351 351 351 350 350 349 350 349 349 349 348 348 348 348 348 347 348 348 348 346 345 345 346 346 346 346 345 345 345 344 344 342 341 339 338 337 336 332 332 336 336 336 336 336 337 338 339 340 340 340 341 339 338 339 339 338 337 335 335 335 335 335 335 337 341 343 341 337 337 334 334 335 335 334 334
344 345 346 345 345 342 345 347 351 351 351 350 350 350 350 350 349 349 348 348 348 348 348 348 348 348 348 347 347 346 346 346 346 346 345 345 345 344 344 344 342 341 340 339 337 336 336 332 330 334 335 335 335 335 335 336 339 339 339 340 339 338 337 336 335 333 331 331 331 332 335 338 332 335 342 343 340 336 334 334 332 333 332 334 334
341 345 345 345 344 343 347 350 349 349 350 350 349 350 350 349 349 348 348 348 348 348 347 348 347 347 347 347 347 346 346 346 346 345 344 343 343 343 343 343 341 340 339 338 338 337 336 332 330 332 334 334 334 334 335 337 337 337 338 339 338 337 336 333 331 328 329 329 330 329 333 337 332 333 340 340 336 335 334 332 332 332 333 333 334
343 345 345 344 344 342 347 347 347 349 350 350 350 349 349 349 349 348 348 348 348 347 346 347 347 347 347 347 347 347 346 346 345 344 344 343 343 343 342 341 340 339 338 338 338 336 336 333 330 330 332 332 332 334 335 335 335 336 337 337 337 335 333 332 328 327 327 327 328 330 328 328 330 335 339 338 336 334 333 333 333 332 333 333 333
344 345 346 345 344 342 345 348 347 348 349 348 348 349 349 347 348 348 348 348 347 346 346 346 346 347 346 346 346 346 346 345 344 343 343 342 342 341 341 340 339 338 337 337 336 335 335 333 330 329 330 331 331 332 333 333 334 334 334 335 334 333 331 329 326 326 326 326 327 327 328 327 328 336 337 336 336 334 333 333 333 332 331 332 331
344 344 345 345 345 344 341 343 345 348 349 348 349 348 346 347 347 348 348 348 347 347 346 346 346 346 346 346 346 345 344 343 343 343 343 342 341 341 340 340 339 338 337 336 336 334 334 333 329 327 328 328 329 330 331 332 333 333 333 334 333 331 328 326 327 324 325 325 327 327 327 329 329 335 336 336 335 333 332 332 332 332 331 331 332
342 342 342 343 344 344 340 340 343 344 346 347 348 348 347 348 348 347 347 347 347 346 346 346 346 347 347 346 346 345 344 344 343 343 342 342 342 341 340 339 339 338 337 336 335 333 330 329 327 325 325 325 327 329 329 330 331 331 331 331 330 327 325 321 321 321 322 324 325 326 326 328 335 335 335 334 333 333 332 332 332 332 331 330 331
334 336 339 340 342 343 344 340 337 338 342 344 345 346 347 347 347 347 346 347 347 346 346 346 347 347 347 346 346 345 344 344 343 342 342 341 341 341 340 339 338 337 337 336 335 332 327 325 323 322 322 323 325 327 327 328 328 328 329 328 327 325 323 320 318 319 320 321 323 324 325 328 334 334 334 334 333 333 332 331 331 331 330 329 330
328 331 333 334 336 338 341 343 337 334 336 337 340 341 343 344 345 346 347 347 347 347 347 347 347 347 346 346 345 345 344 344 343 342 341 342 341 341 339 338 337 336 336 336 334 331 327 324 321 320 321 322 324 325 326 326 326 326 326 326 325 323 320 317 315 315 317 320 321 322 324 326 333 333 333 333 332 332 332 330 331 331 330 329 329
319 322 324 328 331 335 337 339 338 339 339 334 333 337 340 343 344 344 345 345 345 347 346 346 346 345 345 344 342 342 343 344 343 342 342 342 341 340 340 338 337 336 336 335 333 330 328 325 323 321 321 322 323 323 324 324 324 324 324 323 322 321 319 316 310 311 314 319 316 320 323 332 333 332 333 332 332 332 331 331 331 331 330 328 329
314 315 317 318 320 327 331 333 336 339 339 340 339 336 334 339 341 341 341 342 344 344 345 343 342 342 342 340 339 338 336 337 339 340 340 338 336 335 339 338 336 336 335 334 332 330 328 326 323 321 321 321 321 323 322 322 322 323 321 320 317 316 314 309 305 304 308 311 314 317 323 333 332 332 332 332 332 331 331 331 329 329 329 329 329
314 315 316 317 317 319 320 325 332 335 337 339 339 339 332 330 336 336 338 338 340 339 340 337 334 334 334 333 330 330 328 331 329 333 333 337 335 333 335 336 336 335 335 334 333 331 328 326 325 323 321 320 320 321 321 321 322 320 319 317 314 312 308 304 301 300 303 307 313 314 326 329 333 332 333 333 332 330 329 330 329 329 327 329 329
312 313 314 315 316 317 319 320 321 328 334 337 340 338 336 329 331 330 332 336 336 336 334 327 324 323 325 322 324 333 334 332 331 333 327 331 326 328 333 337 337 336 335 334 333 332 330 328 325 323 321 321 319 317 319 320 320 318 317 313 309 306 306 304 301 300 300 304 309 314 323 323 327 333 334 335 333 331 329 329 329 328 329 328 328
308 309 312 313 314 315 317 318 319 320 325 331 337 339 335 333 336 335 334 332 328 325 328 331 329 328 319 325 333 332 334 333 334 331 330 326 326 326 330 336 337 335 335 334 334 332 331 330 327 325 324 323 317 305 306 312 315 315 311 308 302 302 304 303 300 300 300 301 306 316 321 323 323 326 330 332 334 334 334 333 330 328 328 329 329
307 308 310 312 311 313 316 317 318 319 320 326 333 338 337 338 337 334 333 330 331 332 334 332 332 331 331 333 332 335 334 333 333 331 330 322 324 325 330 332 334 333 334 336 334 333 332 331 331 329 326 320 310 306 305 303 304 308 305 300 299 300 301 302 301 299 300 303 302 318 317 319 323 325 325 325 327 329 331 332 334 334 334 330 329
305 305 307 311 310 312 314 315 316 318 319 323 330 338 338 338 336 336 334 334 334 334 335 336 335 334 333 332 330 331 333 334 328 326 327 328 324 325 327 328 329 328 329 330 331 332 331 331 329 325 319 314 311 309 307 305 305 305 303 299 298 298 300 300 300 299 299 303 305 317 318 319 319 322 327 326 326 325 325 326 328 332 333 334 332
305 306 306 310 310 310 311 313 316 317 318 320 326 332 338 339 337 337 336 336 336 335 335 336 336 333 329 328 329 328 329 329 330 329 331 329 328 327 327 327 327 323 323 324 324 325 323 320 318 315 312 311 310 310 308 308 307 307 305 302 300 299 299 299 300 299 299 300 306 318 319 320 321 322 323 324 325 324 325 326 327 328 329 330 332
305 305 305 307 309 310 309 311 314 316 317 319 323 326 333 336 336 337 337 336 334 331 330 330 330 332 331 330 329 328 329 331 330 330 329 330 329 328 328 329 326 323 321 324 323 323 325 321 318 315 312 311 310 309 307 308 309 307 307 304 302 301 300 299 299 300 300 300 306 316 318 319 322 323 324 325 324 323 322 322 324 325 325 326 327
304 306 306 307 309 309 311 312 313 315 317 321 327 327 329 332 333 332 330 328 327 326 325 326 326 327 329 329 330 330 330 330 330 329 329 329 327 328 329 328 326 323 323 326 325 325 323 322 320 317 314 311 310 308 307 307 308 309 308 306 304 303 303 303 303 301 300 301 305 314 317 318 321 324 324 324 324 325 324 323 323 323 322 323 324
307 307 307 309 311 314 314 311 312 314 318 329 327 327 327 327 325 324 325 323 323 323 323 324 325 326 328 329 329 330 329 328 327 326 325 325 324 325 326 326 325 325 325 325 323 321 320 320 320 319 317 315 313 310 309 309 308 309 309 308 307 306 305 304 305 304 303 302 304 311 315 318 319 319 322 324 326 326 325 325 325 326 325 324 323
307 307 308 310 313 314 312 311 316 321 327 326 325 325 324 324 323 322 321 320 321 321 322 323 323 324 326 327 327 325 325 324 323 322 322 321 322 322 322 321 322 321 320 319 320 319 318 318 318 318 316 315 315 312 309 310 310 309 308 308 308 308 308 307 305 304 303 301 302 307 313 316 316 317 320 322 324 324 324 324 325 325 325 325 325
307 308 308 311 313 313 311 313 320 324 324 323 321 321 320 319 319 318 317 317 317 318 319 318 320 321 322 324 324 323 322 321 320 320 319 319 319 319 319 319 319 319 319 317 317 318 317 317 317 316 315 314 314 314 313 312 310 310 308 309 307 309 309 307 305 303 301 301 300 302 309 311 313 315 317 319 319 319 320 320 322 323 324 325 325
307 307 309 311 312 311 310 313 318 319 319 317 316 316 316 315 314 314 314 312 312 312 313 314 315 317 319 321 321 321 320 319 318 318 317 317 317 317 317 318 317 317 317 316 316 316 315 314 314 314 313 312 311 312 312 311 310 310 310 311 308 310 309 307 304 302 300 299 299 300 302 307 310 311 314 315 313 313 314 315 317 319 321 322 323
305 306 308 311 310 309 309 311 315 315 314 313 312 312 311 311 311 311 309 309 309 309 309 311 311 313 315 318 318 318 318 317 316 315 314 313 312 312 313 313 313 314 313 312 311 311 310 309 308 308 308 308 308 308 309 309 308 309 310 310 311 310 307 305 303 302 301 300 300 299 299 300 305 307 309 312 312 312 312 312 312 314 317 319 321
306 307 308 308 308 308 309 309 311 312 311 310 309 309 309 309 308 307 307 307 306 307 307 308 309 311 312 312 313 314 314 313 313 312 311 311 311 310 310 310 310 310 309 307 306 305 305 304 303 303 303 302 302 303 306 306 306 307 308 309 308 307 306 304 302 301 300 299 298 298 298 298 297 302 304 307 308 309 310 310 310 310 313 315 317
304 305 307 306 308 309 308 308 308 309 309 309 308 307 307 306 306 305 305 304 304 304 305 306 307 309 309 309 309 310 310 311 310 310 310 309 309 308 308 308 308 307 305 303 302 301 300 300 300 299 299 299 298 299 301 302 304 306 306 307 306 305 304 303 302 300 298 296 295 295 296 296 295 295 295 301 303 305 307 308 308 307 309 312 313
305 305 305 305 306 306 307 306 307 306 307 307 307 306 306 305 304 303 303 302 302 301 302 302 304 305 306 306 307 307 307 307 307 307 306 306 305 304 304 305 307 306 302 300 297 296 296 295 296 295 295 295 295 295 296 298 300 302 303 304 303 303 303 302 301 299 297 295 293 292 292 292 293 293 293 291 295 299 303 305 305 306 307 309 311
305 304 303 305 304 305 305 305 306 304 304 304 305 304 303 303 302 302 300 300 299 299 299 299 299 301 302 302 303 303 303 302 302 302 301 301 301 300 301 302 302 301 300 298 295 293 292 292 291 291 291 290 292 292 293 295 298 298 298 298 300 301 300 299 298 296 295 293 291 289 289 289 291 292 294 289 289 292 300 302 303 303 303 306 308
305 304 302 303 303 303 303 303 304 303 303 302 302 301 301 300 299 298 298 298 297 296 296 297 297 298 298 298 298 299 298 298 298 298 298 297 297 297 298 299 298 297 296 296 295 293 291 290 289 289 289 288 289 290 292 295 297 296 295 294 295 295 295 295 295 295 294 291 289 288 287 287 289 293 290 289 288 288 293 298 299 299 299 302 305
304 304 303 303 302 302 302 302 302 302 302 300 299 298 298 297 297 296 296 295 294 294 293 294 294 294 294 294 295 295 295 294 294 294 294 294 293 294 294 295 295 295 294 294 293 291 289 288 287 287 287 287 287 289 291 294 294 293 292 292 291 291 290 291 292 293 292 290 288 287 286 286 286 287 289 289 287 287 287 292 295 295 295 299 302
303 303 303 303 302 302 302 301 301 300 300 299 298 297 296 296 295 294 294 293 293 293 292 292 291 292 292 292 292 292 292 292 292 292 292 292 292 291 291 291 292 292 291 291 290 290 289 287 286 286 287 286 286 286 290 293 292 291 291 290 290 289 289 289 289 289 289 289 288 288 287 285 286 286 287 288 286 286 286 287 287 287 287 295 300
302 303 302 302 302 301 301 301 300 300 299 298 298 296 296 295 293 293 292 291 291 291 290 290 290 290 291 291 291 291 291 291 290 291 291 290 290 290 289 290 290 290 289 288 288 287 287 287 286 285 285 286 287 286 288 292 291 290 289 289 289 289 288 288 287 287 287 287 286 285 284 284 284 285 286 286 286 285 285 285 287 286 286 290 295
303 303 302 301 301 301 300 300 300 300 299 298 297 296 294 293 293 291 289 290 290 289 289 289 289 289 290 290 290 290 290 290 289 289 289 290 288 288 288 288 288 288 287 286 286 287 287 286 285 286 285 285 285 285 285 287 292 290 291 289 288 288 289 287 285 285 285 286 285 284 284 283 283 284 284 285 284 284 285 285 285 285 285 285 287
301 302 301 301 301 300 300 300 300 300 300 299 297 296 295 294 291 290 289 289 288 288 287 288 288 289 289 288 289 288 288 288 288 288 287 287 287 287 286 286 287 287 286 286 286 287 285 285 285 284 284 284 283 284 285 285 286 287 288 288 288 286 286 286 285 284 284 284 284 283 283 283 283 283 284 283 283 283 284 284 284 284 284 285 285
301 301 302 301 300 299 299 300 299 298 298 298 296 294 293 291 290 289 289 287 287 288 287 287 288 287 287 287 287 287 287 286 286 287 286 286 286 286 285 285 285 287 286 285 285 284 284 284 284 283 283 283 283 284 284 284 283 283 285 284 283 286 290 282 283 284 283 282 283 283 283 282 282 282 283 282 282 282 283 283 283 283 284 284 285
300 301 301 300 300 298 297 296 295 295 295 294 293 292 290 289 289 288 287 287 287 288 287 287 286 286 285 286 286 285 285 285 285 285 285 285 285 285 285 285 285 285 285 284 284 283 284 283 283 284 283 282 281 282 284 283 282 283 282 282 281 279 276 277 279 280 280 281 282 282 282 281 281 281 282 281 281 281 282 282 282 283 284 284 285
299 299 299 298 298 296 296 295 294 293 293 292 291 290 289 288 287 287 287 286 287 287 286 284 285 285 285 284 284 284 284 284 284 284 285 284 284 285 285 284 284 284 285 284 284 283 283 283 283 283 282 282 280 280 283 283 282 283 281 278 277 277 278 276 277 276 279 280 280 280 282 281 280 281 281 280 281 281 281 281 282 282 283 284 284
299 299 298 297 296 295 294 294 293 292 292 291 290 290 289 287 286 285 285 284 284 284 283 283 283 283 283 283 284 284 284 284 284 284 284 285 284 284 284 284 284 284 284 284 284 284 283 283 283 282 282 281 282 281 280 283 282 283 282 280 279 276 276 277 275 275 276 278 278 280 279 280 279 280 280 280 280 280 282 281 281 281 282 283 284
298 297 295 294 293 293 293 293 292 292 291 290 290 290 288 287 287 286 285 284 283 282 282 282 283 282 283 283 283 283 284 284 284 284 284 284 284 284 284 284 284 284 284 284 283 283 283 283 283 283 282 284 281 280 279 280 280 281 281 281 281 279 277 274 275 275 272 274 277 278 277 279 278 278 279 279 279 279 280 281 280 281 281 282 283
297 296 294 292 291 290 291 291 291 291 290 289 289 289 287 286 285 285 285 284 283 282 282 282 283 283 283 283 283 283 283 284 284 283 284 284 284 284 284 284 284 283 284 283 282 282 283 283 283 282 282 281 281 280 278 278 278 279 280 279 280 279 278 278 276 275 276 274 274 276 276 278 278 277 278 278 278 278 278 279 280 280 280 281 282
296 295 292 291 291 290 290 290 290 290 289 289 289 287 287 286 285 284 283 283 283 283 283 284 283 283 282 282 283 282 283 283 283 283 283 284 284 284 283 283 283 283 283 282 282 282 281 281 281 282 281 281 281 280 279 278 278 278 277 278 277 276 276 277 276 276 275 273 273 274 274 276 276 275 277 277 277 278 279 278 280 280 281 281 281
294 294 291 290 290 290 290 290 290 290 289 289 289 287 286 286 285 284 283 282 283 282 282 282 282 282 282 282 282 282 282 282 282 282 283 283 283 283 282 282 282 282 282 281 281 281 281 280 280 280 280 280 280 280 279 278 278 277 277 277 277 276 276 276 276 274 274 275 274 273 274 273 273 275 277 277 278 278 277 278 278 278 279 279 280
293 293 290 290 290 290 290 289 289 289 289 288 287 286 285 285 284 284 283 282 282 282 281 281 281 282 281 281 281 281 282 282 282 282 282 282 282 282 282 282 282 282 282 280 280 280 280 280 280 280 279 279 279 279 280 279 278 278 277 277 277 277 277 276 274 275 274 273 273 273 273 274 274 274 274 277 279 277 277 277 276 278 278 278 279
Wind_Speed
2 4 3 3 7 7 8 9 11 12 12 13 13 13 13 13 13 13 13 14 15 15 15 14 14 14 15 14 13 13 14 15 16 16 17 17 16 15 16 15 17 18 18 17 17 17 16 15 14 14 14 14 13 13 14 13 13 13 12 13 13 14 14 14 13 13 14 15 17 17 16 15 17 17 18 19 18 19 18 18 15 11 8 13 19
6 4 3 2 8 8 8 9 11 12 12 13 13 13 13 13 12 12 12 14 14 14 14 14 14 14 14 14 14 13 14 15 16 17 16 16 15 15 16 17 17 18 17 17 17 16 16 15 14 14 13 13 13 13 13 13 13 12 12 12 13 13 13 13 12 12 12 13 14 15 16 17 16 17 17 18 19 19 18 18 18 10 7 17 18
6 5 3 3 6 7 7 8 10 12 12 13 12 12 12 11 11 11 12 13 13 14 14 15 14 14 14 14 14 14 14 15 15 15 15 16 15 14 16 17 18 17 16 16 16 15 15 14 14 14 14 13 13 14 14 14 13 13 12 12 13 13 12 12 12 10 11 13 13 14 14 16 15 17 17 18 19 19 17 17 18 16 11 20 17
8 6 3 4 7 6 8 8 9 10 11 11 12 11 11 11 11 11 13 12 13 13 14 14 14 13 13 13 14 14 14 14 14 15 15 15 15 15 15 16 17 16 15 15 15 14 14 14 13 14 13 14 14 13 14 13 13 13 13 13 13 13 12 13 13 11 12 13 13 12 7 6 9 15 17 18 19 19 17 17 18 18 18 17 18
7 5 4 4 4 6 8 8 10 10 10 11 11 11 11 11 10 11 12 12 12 13 13 13 13 13 13 13 13 14 14 14 14 14 14 15 15 15 14 15 16 15 14 14 14 14 13 13 13 13 13 13 13 13 13 13 13 13 13 14 13 12 13 13 12 12 13 13 13 9 6 7 5 13 16 18 19 18 17 18 18 18 17 17 17
5 5 3 4 4 5 8 8 11 11 10 10 11 11 10 10 10 11 11 12 12 12 13 13 13 13 12 12 12 12 13 13 14 14 14 14 15 14 14 14 15 14 14 14 14 13 13 13 13 13 13 13 13 13 13 13 13 14 14 13 12 13 13 13 13 13 12 12 12 7 7 6 5 7 17 19 19 19 18 19 18 17 16 17 16
7 4 4 4 4 5 8 9 10 11 11 10 10 10 10 9 9 10 10 11 11 12 12 13 12 12 12 12 11 11 12 13 13 14 14 15 15 14 13 13 13 14 13 14 14 14 13 13 13 13 13 13 13 13 13 13 14 14 14 13 13 13 14 13 12 12 10 8 5 6 6 6 5 4 17 18 18 18 18 17 16 16 15 15 16
4 4 4 3 3 5 8 8 8 10 11 10 9 9 10 9 8 9 9 10 11 11 12 12 12 12 12 12 12 12 12 13 13 13 13 13 13 14 14 13 14 14 14 14 14 14 13 13 13 13 13 13 14 14 13 14 14 15 14 14 14 15 15 15 17 13 10 7 6 6 6 6 6 5 16 17 18 17 16 16 15 15 15 16 14
5 4 4 3 3 7 8 8 7 8 10 10 10 9 9 10 9 9 9 9 10 10 11 12 11 11 11 11 12 11 11 12 13 13 13 13 13 14 14 14 14 14 14 14 14 14 14 13 13 13 13 14 14 14 14 14 15 15 15 14 15 16 15 14 13 11 7 5 6 6 6 5 4 5 14 17 18 17 16 13 11 14 15 14 14
5 4 4 4 4 8 9 8 8 8 10 10 8 8 9 9 9 9 9 9 10 10 10 11 11 11 11 11 11 11 11 11 12 12 12 13 13 14 14 14 14 15 14 14 14 14 14 13 13 13 13 13 14 14 14 15 15 15 15 16 18 17 16 15 14 9 6 6 6 6 8 9 5 5 14 18 18 17 15 14 12 11 11 14 15
5 5 4 4 5 10 10 9 7 7 9 9 8 8 8 7 8 9 9 9 10 9 10 10 10 11 11 11 11 11 11 11 12 12 11 12 13 14 14 14 15 14 14 14 14 14 14 14 14 14 14 14 14 14 15 14 15 15 16 17 18 17 16 13 9 7 7 7 7 6 8 11 6 5 14 16 16 15 14 14 13 13 13 14 14
5 5 5 4 7 10 10 10 8 7 9 9 10 9 8 7 8 8 8 8 9 9 9 9 9 10 10 11 11 11 11 12 11 12 12 12 13 13 14 14 14 14 14 14 14 14 14 14 14 14 14 14 14 14 14 15 16 16 18 18 17 17 14 13 8 7 7 7 7 6 5 5 5 10 16 16 15 14 13 13 13 13 13 15 14
6 5 5 5 5 7 9 10 11 10 9 9 9 10 9 8 8 8 8 8 9 9 10 9 9 9 10 10 10 10 10 11 12 11 11 12 12 13 14 14 13 13 13 13 13 14 14 14 14 14 14 14 14 14 14 15 16 17 18 16 16 16 14 11 7 8 7 7 7 7 6 5 5 13 14 15 15 13 13 12 13 13 12 14 13
6 5 5 5 4 7 9 9 9 9 9 10 9 9 9 9 8 8 8 7 7 8 9 10 9 10 10 10 10 10 10 11 11 11 11 11 12 13 13 13 12 13 13 13 13 14 14 14 14 14 14 14 14 14 14 15 15 16 16 16 15 14 12 9 7 7 7 7 7 7 7 6 5 14 14 15 13 13 12 11 12 13 12 13 13
6 5 4 4 4 4 8 8 7 9 10 9 10 10 11 7 8 9 9 9 8 8 9 9 9 10 10 11 10 10 11 11 11 11 11 10 11 13 13 13 12 13 13 13 13 13 13 13 13 13 13 13 13 13 14 14 15 16 16 15 14 13 11 7 6 6 6 6 6 6 7 5 12 14 15 14 13 12 11 11 11 12 12 12 12
6 5 5 4 3 3 4 5 7 7 9 9 8 8 10 9 7 8 8 8 9 9 9 9 10 10 10 10 10 10 11 12 11 11 10 10 11 13 13 13 12 13 13 13 13 13 13 13 12 12 12 13 13 13 13 14 14 15 15 14 13 12 11 8 6 6 5 5 5 5 6 5 13 14 14 14 13 12 12 11 11 11 12 10 11
7 6 7 5 5 4 2 3 4 7 7 8 8 9 7 6 6 6 6 6 7 7 9 9 9 10 10 10 10 9 9 11 11 11 10 9 11 13 12 13 13 13 13 13 13 12 13 13 12 12 12 12 13 13 13 13 14 13 13 12 12 12 10 8 6 5 5 5 4 5 5 4 10 13 14 14 13 13 13 12 12 12 11 10 10
7 7 7 5 5 4 4 4 2 2 4 5 6 8 7 8 6 4 6 6 8 8 7 7 8 7 8 8 9 9 9 10 9 10 10 8 11 11 12 13 13 12 12 12 12 11 12 12 12 12 13 13 13 13 13 13 13 13 12 12 12 11 10 8 6 5 5 5 6 4 6 7 9 10 13 13 12 12 12 13 13 12 12 10 11
7 7 6 7 6 4 5 3 3 2 2 2 2 5 8 8 6 6 5 6 6 8 9 7 7 7 7 7 8 9 9 9 8 8 8 8 9 11 11 12 13 13 12 11 10 11 11 11 12 12 12 13 13 12 12 12 12 12 12 11 10 10 10 7 5 6 6 6 6 7 7 14 10 12 12 11 12 11 10 11 11 11 10 11 11
6 7 6 6 5 6 6 4 4 3 1 2 2 3 4 7 8 8 6 6 8 5 8 9 8 8 7 6 7 6 6 5 8 7 8 7 8 9 10 10 12 12 12 11 10 9 10 10 10 10 11 11 12 11 11 11 11 12 12 11 10 10 7 6 5 6 6 6 5 6 10 15 13 12 13 14 13 11 11 10 10 10 11 11 10
5 5 6 6 5 5 5 4 4 3 2 1 4 4 5 7 5 7 6 9 8 9 9 9 9 7 6 6 6 5 4 4 5 4 6 5 8 11 10 9 9 10 10 10 10 9 8 9 10 10 9 9 9 10 10 10 10 10 10 10 10 7 6 6 6 6 6 6 7 7 13 13 13 12 12 13 13 13 11 11 10 10 11 11 11
4 4 5 5 6 5 5 4 4 5 4 2 2 4 4 5 5 5 5 5 7 8 7 5 6 5 5 4 3 3 3 4 4 4 4 4 6 11 10 9 8 8 7 8 8 8 7 7 8 8 9 8 8 6 6 8 10 10 10 11 8 6 6 6 6 7 7 7 7 9 16 15 14 13 12 12 12 13 14 13 11 10 9 9 9
4 5 4 5 4 4 4 5 6 4 5 2 1 5 5 5 5 5 4 5 5 6 5 5 4 4 4 3 3 4 4 3 3 4 4 6 5 9 9 8 8 7 6 5 6 7 7 7 8 7 7 8 6 6 6 6 7 10 9 7 6 6 5 5 5 6 6 5 6 12 16 16 17 16 14 13 12 13 14 15 15 14 15 9 7
1 1 3 4 4 5 6 5 5 6 4 3 2 4 4 4 4 4 3 2 3 4 4 5 4 4 3 2 2 3 4 4 5 6 6 4 3 4 9 8 8 7 8 5 6 6 6 7 7 7 6 4 5 5 6 5 6 6 6 6 6 5 6 5 5 5 6 5 6 14 15 17 17 17 17 17 17 16 15 14 15 15 13 15 13
0 0 2 4 5 4 4 5 6 4 3 4 3 1 3 3 3 3 3 3 3 3 2 3 4 4 3 3 3 3 3 3 4 5 5 5 4 3 4 4 4 3 5 4 3 3 2 3 5 5 4 4 5 5 5 6 6 6 6 5 5 4 5 5 4 5 5 5 6 11 14 18 18 17 17 17 18 18 19 18 16 18 18 15 14
0 2 2 4 4 5 3 4 5 5 4 3 3 1 4 3 3 3 4 4 6 6 5 5 4 4 3 3 5 4 5 4 3 3 3 4 4 3 3 3 3 4 2 4 2 2 3 4 4 5 5 4 5 5 4 5 6 7 6 5 6 5 6 6 5 6 4 6 7 13 13 17 18 19 18 18 18 18 18 18 18 19 19 19 20
1 1 2 3 4 4 4 3 4 3 3 2 2 3 3 3 3 5 6 5 6 6 5 5 4 4 4 3 5 5 5 5 5 4 4 4 3 3 4 4 3 3 2 3 4 4 5 4 5 5 4 5 5 5 4 4 5 6 6 5 5 5 6 6 7 7 7 7 8 15 13 17 18 19 19 19 19 19 19 19 19 19 18 19 19
2 2 2 3 3 4 4 3 3 1 1 3 5 5 5 6 6 8 6 6 7 6 5 5 4 6 5 4 5 5 5 6 5 5 5 5 5 5 5 5 5 5 5 5 4 5 5 5 5 5 6 6 6 5 5 5 6 5 6 5 5 6 6 6 7 7 8 8 9 15 16 17 18 20 20 20 20 20 21 20 20 20 20 19 19
1 1 3 3 4 4 4 3 1 4 4 5 6 6 6 7 6 7 6 6 7 5 5 5 6 5 5 6 5 6 6 6 6 5 5 6 6 7 6 6 5 6 5 6 4 5 5 5 5 5 5 6 6 6 5 6 6 6 6 6 5 6 7 7 7 8 7 7 8 14 20 20 21 21 21 21 22 22 22 21 21 20 20 20 19
1 1 2 3 3 4 3 3 3 6 6 6 6 6 6 8 6 7 6 7 6 5 5 6 5 5 5 5 6 6 6 7 7 5 7 7 7 6 7 6 6 5 5 6 5 5 5 6 5 5 6 6 6 5 5 6 7 6 6 5 6 6 7 7 8 7 7 7 8 10 20 20 21 22 22 22 23 23 23 23 22 21 21 21 21
1 2 2 2 3 3 3 3 5 6 6 7 7 8 6 8 6 6 6 5 5 5 6 6 5 5 5 6 7 6 7 7 7 7 7 7 6 6 6 5 7 5 5 6 4 6 6 6 5 5 6 6 5 4 5 6 6 6 6 6 5 6 7 7 8 8 8 8 8 8 11 20 20 21 22 22 23 24 24 24 24 23 22 21 21
2 1 1 1 2 4 4 4 5 7 8 8 8 8 7 7 7 6 6 5 4 4 5 6 6 5 5 6 6 6 6 6 7 7 7 7 7 7 6 7 6 5 5 6 7 6 6 6 6 5 5 5 5 5 4 6 6 5 6 6 6 7 7 7 8 9 9 9 8 8 8 10 15 19 21 22 23 23 24 25 25 25 23 23 22
1 0 2 2 4 4 4 5 5 6 9 8 8 8 6 7 6 6 6 6 4 4 5 6 6 5 6 6 6 6 6 6 6 8 8 7 7 7 7 6 6 5 6 7 7 6 6 6 6 5 6 5 6 5 3 6 6 5 6 5 6 7 7 8 8 8 9 9 8 8 8 8 9 12 17 20 21 23 23 24 25 25 24 23 23
3 2 3 4 3 3 3 4 5 7 9 8 7 8 6 6 6 6 6 6 4 7 6 5 5 5 6 6 6 6 7 5 6 7 7 8 8 7 7 6 5 5 6 6 7 5 6 7 5 6 6 6 6 5 5 7 5 5 6 5 7 7 7 8 8 8 9 9 8 8 8 8 8 8 9 14 19 21 22 23 24 25 24 24 23
3 3 4 5 4 4 3 5 5 7 8 7 7 9 6 5 7 6 5 6 6 7 6 5 5 5 5 6 6 7 6 6 5 7 8 7 8 7 6 5 5 5 7 6 7 6 7 7 5 6 5 6 5 6 6 6 6 8 6 6 7 8 8 8 8 8 9 8 8 8 8 8 7 7 8 8 11 17 20 22 23 24 24 24 24
5 4 5 5 5 5 5 6 7 8 7 8 8 8 7 7 7 7 6 6 7 6 5 5 5 5 6 6 6 7 7 6 6 7 8 7 7 7 6 5 6 7 7 6 7 8 7 7 6 4 7 6 6 7 6 7 7 8 7 8 8 9 9 8 8 8 7 8 8 8 8 8 7 8 7 8 8 10 18 20 22 23 23 24 24
6 5 6 5 6 6 6 8 8 7 9 9 10 9 8 8 8 7 7 7 8 6 6 5 6 6 6 6 6 7 6 6 6 6 8 8 7 8 6 6 5 7 7 8 8 5 6 7 7 6 5 6 7 6 7 7 8 8 8 9 9 9 9 7 7 6 7 9 8 8 8 7 8 7 8 8 8 8 12 18 19 20 21 22 24
5 5 6 7 7 6 6 8 9 8 8 8 9 9 9 8 8 7 7 8 8 6 5 5 6 5 6 6 6 6 6 7 6 6 8 8 7 7 6 6 6 8 8 8 7 5 5 6 9 7 6 6 7 7 7 7 8 8 9 9 9 9 7 7 7 7 8 8 8 8 7 6 8 8 8 8 8 8 8 12 17 17 18 21 23
5 6 7 6 6 7 6 7 9 10 9 9 10 9 10 9 8 8 8 9 6 6 5 6 5 6 6 6 6 6 7 7 6 6 8 8 8 7 7 5 6 7 7 7 6 6 6 6 8 7 7 8 7 5 6 8 8 8 9 8 8 8 7 7 7 8 7 7 7 6 6 8 7 8 8 8 8 8 9 8 8 9 11 19 21
5 6 7 7 7 8 7 7 8 9 10 9 9 9 7 7 9 7 9 7 5 6 6 6 5 6 6 6 7 7 6 7 7 7 8 8 8 7 8 6 6 7 8 8 6 6 6 8 8 6 8 9 8 6 5 7 8 9 8 8 7 7 9 8 9 8 7 7 6 7 8 7 8 8 8 8 8 8 8 8 8 8 8 12 19
6 8 8 8 8 9 9 9 8 9 9 9 8 9 10 8 7 7 8 6 6 5 7 5 6 6 6 7 7 6 7 7 6 7 8 8 8 7 8 7 6 7 8 7 4 5 5 6 6 7 8 10 8 6 4 2 9 6 6 6 7 5 6 9 9 8 7 6 6 8 7 8 8 8 8 7 8 8 8 9 8 8 9 8 10
6 7 9 9 7 8 9 9 8 8 7 8 8 6 4 6 10 7 8 6 5 6 7 6 6 6 7 7 6 6 7 7 6 6 7 8 8 8 8 7 7 7 7 6 6 6 6 6 4 9 6 9 6 5 5 1 4 5 6 2 2 2 4 8 9 7 6 6 6 8 7 8 8 7 7 8 8 8 8 8 8 9 9 9 9
8 7 8 8 7 7 7 8 8 7 5 6 6 6 7 6 7 7 7 7 5 4 5 5 5 7 7 6 6 6 7 7 6 5 7 7 8 8 7 6 6 6 8 8 7 8 6 5 5 7 7 4 6 6 9 4 4 2 1 4 1 1 1 5 4 5 6 6 6 8 8 8 8 6 6 7 8 8 8 8 9 9 9 9 9
7 7 7 8 7 6 5 6 6 5 6 6 8 8 10 11 9 9 7 7 8 6 7 6 6 8 9 6 6 6 6 7 5 6 7 7 7 8 6 7 7 6 7 8 7 7 6 5 5 4 5 7 5 7 7 7 4 2 1 1 1 2 1 2 3 3 2 5 7 6 6 7 7 7 6 8 8 8 8 7 9 9 9 9 8
8 8 8 8 6 7 6 7 7 7 7 9 10 12 13 12 10 9 10 11 7 7 8 7 5 5 6 7 6 5 6 6 5 6 7 8 6 7 8 7 7 6 6 8 8 6 5 4 4 5 5 8 5 4 8 7 9 4 5 3 2 3 0 2 4 1 3 3 5 6 7 9 9 7 7 7 7 7 7 8 8 8 8 9 9
9 8 7 7 6 6 6 6 6 7 8 10 12 12 12 14 11 11 9 8 8 7 8 10 6 6 6 3 6 5 5 6 6 7 7 6 8 7 7 8 7 7 7 7 6 6 6 6 4 5 7 5 9 7 5 6 8 10 8 4 1 3 2 1 2 1 5 1 3 6 6 7 6 7 6 7 8 9 7 7 7 7 7 7 8
8 7 6 7 6 7 7 7 8 8 8 10 9 10 11 11 13 11 11 11 11 3 3 4 7 5 5 6 6 5 4 7 6 6 6 6 7 7 8 8 7 6 5 7 8 7 5 4 3 6 5 4 6 8 7 4 6 8 7 8 10 6 3 3 0 1 2 3 4 4 4 8 5 5 5 5 5 7 7 6 7 6 7 6 8
9 8 8 7 8 8 8 8 7 9 8 8 8 8 11 8 9 9 9 9 10 9 6 6 5 6 7 6 6 6 5 6 7 6 6 6 7 8 7 7 7 6 6 7 7 5 6 5 6 5 6 6 6 8 5 2 6 2 3 6 6 6 6 7 2 1 1 1 5 4 2 8 6 4 3 4 5 6 5 6 5 6 5 6 7
9 10 9 8 8 8 8 8 9 8 8 8 9 5 6 11 11 10 9 6 10 9 6 6 7 6 9 6 7 6 6 6 5 6 5 6 6 7 7 7 7 6 7 7 5 5 6 6 6 7 8 7 6 5 8 6 5 3 4 4 5 5 5 4 3 3 2 1 4 2 5 4 4 3 4 1 2 4 4 4 3 4 5 6 7
7 7 7 8 8 8 9 10 9 8 9 8 7 8 6 9 11 11 14 10 9 8 7 8 7 6 9 6 6 6 6 6 5 5 6 6 6 6 7 7 7 6 6 6 6 6 5 6 6 6 6 8 5 7 7 6 6 4 4 3 4 2 4 4 5 4 2 1 1 4 3 5 7 7 5 7 8 4 3 4 4 4 5 6 6
6 9 8 8 8 10 10 10 10 9 8 9 8 8 8 8 11 13 15 14 11 11 10 8 7 7 9 7 6 6 5 6 5 5 5 5 6 5 6 6 6 6 6 6 6 6 6 7 6 6 6 8 7 8 7 6 6 6 5 6 6 5 4 2 2 2 2 1 2 3 3 2 3 7 4 4 6 5 4 3 3 5 5 6 6
Wind_Direction
226 183 203 209 144 155 148 129 122 117 114 110 108 105 102 99 98 97 95 95 95 93 89 85 81 75 76 80 82 84 84 85 85 82 80 76 71 72 74 72 66 61 58 55 53 50 48 47 47 47 47 47 45 44 43 44 47 46 42 43 46 48 45 41 37 37 45 48 49 48 50 54 55 64 62 60 59 58 53 50 47 42 36 43 43
176 208 198 197 157 159 147 131 124 120 117 112 109 106 103 100 97 96 98 100 97 93 89 85 81 78 78 78 82 81 81 82 84 84 83 82 77 75 75 68 66 63 57 55 52 50 47 46 46 46 46 47 47 45 42 42 44 44 41 40 44 46 43 40 38 39 49 50 51 49 48 48 55 62 62 63 60 57 52 48 44 42 34 43 41
142 168 203 189 160 153 136 129 123 120 117 114 111 107 105 101 102 101 96 95 97 94 93 89 85 82 79 78 78 78 81 83 83 82 82 81 79 72 70 69 67 63 60 56 52 50 48 48 48 47 47 47 48 46 44 40 39 40 36 35 39 42 41 39 41 45 59 57 54 53 48 52 49 60 67 63 60 57 53 48 45 41 36 36 34
144 176 177 176 164 148 141 132 126 121 119 115 113 111 110 107 105 103 99 100 100 100 94 92 88 84 79 77 78 78 79 81 81 84 82 82 78 74 68 69 71 65 62 58 54 51 49 50 51 52 50 49 50 50 47 42 39 38 37 35 38 40 37 36 46 58 66 61 55 52 47 46 51 59 62 64 64 58 55 51 47 43 37 32 30
147 162 174 163 159 146 138 131 132 126 124 120 119 117 115 112 107 105 108 107 106 100 97 94 92 87 84 80 79 80 80 81 81 82 87 85 83 77 71 71 74 68 62 58 56 52 50 51 54 54 53 52 52 52 50 46 43 43 43 42 41 38 35 39 49 61 67 61 57 51 44 45 50 58 62 62 59 57 54 50 46 42 36 30 25
151 156 162 155 151 144 133 132 138 134 131 129 126 125 122 120 116 113 112 112 108 108 105 100 95 91 87 86 82 81 82 82 83 84 85 86 86 86 83 80 76 68 63 60 56 54 52 53 55 56 55 54 54 55 55 53 53 52 49 45 41 36 41 54 68 66 61 59 58 50 46 43 40 49 60 61 58 51 50 48 44 39 34 31 27
150 154 153 153 148 145 134 141 141 138 136 133 131 128 127 121 119 118 117 115 112 111 109 105 99 94 95 93 89 86 85 85 85 85 85 87 87 87 86 86 75 67 63 60 57 55 54 54 56 56 56 54 54 54 56 59 59 55 49 44 41 41 51 66 70 72 67 64 58 57 53 48 38 44 62 60 58 53 49 48 45 42 40 37 33
142 149 155 150 143 149 135 132 137 142 141 136 134 133 130 125 120 123 120 116 116 109 107 104 100 97 92 91 92 90 88 86 87 87 85 92 95 94 90 80 71 66 61 57 56 55 53 55 57 57 56 54 52 53 55 59 59 52 46 45 46 48 55 66 78 73 67 64 64 60 58 54 42 34 61 61 61 57 53 50 46 47 47 45 40
159 156 149 144 144 146 133 135 145 150 141 137 136 137 136 134 127 125 124 117 115 116 114 109 105 102 99 97 95 91 91 92 88 86 85 87 92 89 82 76 71 65 59 55 53 54 55 54 56 57 58 57 55 54 57 60 57 46 45 47 47 48 55 66 73 69 64 62 58 58 56 50 50 44 64 64 61 57 56 54 47 48 51 49 47
161 151 152 150 150 145 140 154 150 138 142 142 141 142 140 132 133 130 129 123 118 122 118 116 113 107 104 99 94 94 93 95 94 90 89 90 85 79 76 73 66 62 58 54 53 53 55 55 54 55 56 57 57 59 61 62 52 46 46 48 49 55 60 66 64 52 49 44 41 47 55 55 42 51 61 65 60 56 57 55 54 52 53 53 51
152 152 155 153 156 148 153 151 142 144 148 146 146 147 140 136 139 135 134 129 126 125 124 120 117 113 106 102 98 97 97 96 99 94 93 92 88 84 80 73 68 63 58 55 53 53 56 57 55 53 52 53 54 61 63 55 47 45 46 49 54 60 63 60 54 52 46 45 42 32 45 49 48 51 58 58 54 56 59 56 55 52 51 52 51
140 139 146 147 155 151 153 151 153 166 159 152 153 151 150 141 140 139 137 136 134 132 127 122 120 116 112 106 103 101 102 102 100 102 99 97 93 88 82 76 70 67 63 57 54 54 57 58 56 54 51 51 51 51 51 49 46 44 46 51 58 62 60 59 58 54 47 42 39 28 22 28 50 57 57 56 56 54 57 57 55 53 51 52 50
118 117 135 145 148 154 145 155 159 170 155 152 162 154 149 147 147 143 141 142 141 133 127 129 125 118 114 110 107 104 106 109 105 103 104 101 97 92 86 82 77 72 68 63 57 56 59 61 58 55 52 50 50 50 50 49 48 48 51 57 62 62 59 52 53 51 45 38 34 25 24 14 32 54 53 54 54 53 54 54 55 54 48 54 49
108 113 121 124 131 147 147 150 155 148 152 163 153 152 140 162 153 153 144 143 142 132 131 133 132 124 118 115 114 111 108 108 111 112 113 110 104 97 93 91 86 81 76 70 63 59 61 64 63 60 56 53 52 52 51 49 48 51 55 61 63 62 56 51 47 50 46 36 28 23 22 15 40 48 48 51 51 51 51 53 54 57 50 52 52
92 79 88 97 122 138 144 143 152 149 153 165 159 160 157 156 154 156 149 148 149 138 136 136 134 127 124 125 123 120 115 117 123 119 118 117 112 106 99 96 92 88 83 78 71 66 67 69 68 66 63 60 57 55 53 50 49 52 59 64 65 63 61 58 51 46 43 36 25 22 16 8 46 47 45 46 49 51 49 46 52 55 53 52 56
58 66 57 51 57 116 126 148 145 151 146 152 154 162 162 150 154 157 148 150 152 149 140 139 135 133 128 128 128 127 127 130 129 127 124 121 116 111 107 101 97 91 88 83 77 73 74 76 75 73 71 70 66 61 56 55 53 55 60 64 66 66 65 70 60 50 43 35 25 21 11 9 47 48 44 44 44 45 46 40 41 50 51 48 53
50 53 61 48 37 36 116 141 130 131 138 145 144 144 137 151 146 158 135 143 151 151 149 146 143 137 134 133 133 131 131 133 135 134 132 127 119 116 112 106 100 96 91 88 83 80 80 80 78 76 73 72 70 65 62 60 58 56 59 65 67 65 63 64 60 47 44 37 33 17 6 350 50 51 49 46 44 42 42 38 34 46 45 36 49
38 44 40 33 28 35 43 62 82 120 146 134 148 154 155 173 170 164 133 126 155 151 146 144 146 139 131 132 132 138 140 140 141 139 137 124 117 124 116 113 107 103 98 95 94 88 84 81 78 77 77 75 70 66 61 59 57 54 56 61 65 64 60 58 55 39 36 29 20 12 7 349 54 53 54 51 46 45 44 43 35 33 37 26 35
36 39 37 30 17 10 36 33 60 68 78 126 87 155 167 165 160 141 131 123 132 151 142 137 126 123 124 131 136 142 144 142 143 139 131 130 127 124 119 118 116 112 108 106 106 100 92 86 80 77 77 77 73 67 64 59 54 50 53 60 63 64 59 56 52 42 33 25 12 9 359 2 34 34 45 53 51 44 42 49 44 39 30 25 22
40 30 26 17 359 13 29 3 20 55 94 125 148 152 162 167 149 143 136 122 122 112 131 124 114 114 121 131 133 125 122 121 123 127 139 134 124 122 123 121 124 120 117 118 116 113 105 98 90 83 77 72 66 60 57 57 53 50 50 52 56 57 53 51 52 48 38 29 25 10 8 12 21 32 31 31 38 44 31 38 43 36 40 27 32
23 23 21 6 8 10 1 4 351 25 16 142 157 168 170 160 148 133 152 149 135 124 110 114 114 114 129 142 132 129 129 118 127 131 135 125 133 129 128 130 128 125 122 125 122 118 117 110 102 91 79 66 55 53 47 52 50 50 53 55 56 53 49 48 42 39 36 29 22 7 19 20 16 24 32 34 29 32 35 33 32 29 35 35 31
12 359 4 5 2 1 345 338 353 349 359 337 195 166 174 177 152 162 164 165 138 123 127 129 134 137 138 156 142 125 126 143 133 143 126 121 130 136 133 132 124 119 122 122 118 114 111 105 101 94 83 69 61 55 49 44 45 47 50 54 51 53 50 51 46 38 34 26 23 17 22 24 22 22 24 27 26 21 19 22 22 21 10 23 26
15 359 349 355 355 335 342 346 327 334 338 340 259 156 173 173 160 161 168 165 130 130 128 141 154 149 150 169 159 140 147 141 139 154 140 127 125 138 133 130 123 116 114 102 99 94 85 79 69 68 67 73 72 72 62 53 50 48 47 49 54 49 53 50 50 45 36 30 25 23 28 29 28 26 28 28 25 17 13 12 14 14 18 8 18
19 344 324 326 355 347 333 322 318 320 335 305 316 171 187 173 149 159 153 127 131 138 131 140 140 141 147 167 124 142 150 139 126 140 122 108 94 118 133 124 118 120 108 83 62 56 59 63 64 64 61 65 81 81 75 67 64 62 57 55 61 58 57 60 61 50 39 29 27 26 28 33 34 33 33 33 32 27 21 14 8 12 21 23 7
226 275 329 333 332 332 328 320 314 304 305 311 356 224 171 164 129 139 127 115 116 116 126 135 135 142 150 107 102 110 114 119 139 135 147 123 127 119 118 119 123 106 97 83 80 87 66 65 59 59 52 65 66 58 67 63 57 56 55 51 58 63 63 55 64 59 43 34 29 26 24 33 36 36 36 36 34 32 30 24 23 18 15 17 19
10 47 331 324 318 314 304 294 298 293 293 336 298 302 168 150 149 138 119 101 78 62 56 54 55 58 65 95 97 88 95 99 86 86 95 131 130 135 114 107 85 76 49 88 82 66 46 61 70 60 44 49 54 52 41 64 65 53 47 39 42 45 52 47 46 55 42 36 28 29 25 33 36 38 37 37 34 32 28 26 26 25 21 18 17
29 18 327 307 299 301 301 294 284 284 323 264 70 68 97 89 88 85 90 83 79 73 61 60 60 65 73 68 92 95 97 93 86 76 79 69 79 92 91 81 91 65 47 95 56 53 62 66 62 57 50 44 42 42 41 43 62 66 51 40 36 39 42 45 41 41 34 30 28 30 30 35 37 39 39 36 34 32 32 28 25 25 22 19 16
56 326 316 300 304 317 314 319 284 142 204 115 93 82 88 88 80 81 71 84 85 79 73 67 70 73 75 81 97 98 104 92 79 80 73 70 66 65 57 63 55 46 43 50 47 52 54 58 65 62 61 52 52 41 36 32 40 47 58 42 40 39 42 47 47 43 44 44 40 38 36 39 43 41 39 38 37 37 35 32 29 27 26 23 20
69 324 317 332 327 312 319 329 66 120 111 105 93 90 88 85 79 82 85 74 81 80 79 70 65 66 68 71 78 88 84 87 81 70 75 70 62 62 63 60 58 57 60 58 59 63 61 61 55 57 57 58 52 40 43 41 43 41 42 40 41 45 47 50 50 52 50 50 45 41 42 41 45 44 42 41 40 38 35 32 28 26 25 23 21
206 334 329 337 324 329 349 10 83 108 106 96 91 87 87 88 79 81 77 68 71 73 73 62 52 60 60 68 76 85 87 95 93 85 88 83 80 81 82 78 76 65 69 72 63 72 69 70 63 61 62 60 58 43 52 50 46 42 40 43 38 49 56 59 57 55 54 51 48 43 42 42 40 41 42 41 39 36 34 31 28 26 23 22 20
145 70 1 346 342 347 16 39 80 93 97 92 91 85 81 86 77 79 75 65 66 69 70 68 60 54 60 73 83 88 98 100 102 100 90 90 84 82 76 81 75 64 74 83 69 77 76 73 67 67 67 69 69 58 56 60 52 44 39 43 32 54 63 65 65 60 58 51 50 45 38 40 38 38 39 39 39 38 35 31 28 24 22 20 18
109 57 2 343 29 24 30 49 80 95 97 93 92 92 83 86 85 81 75 78 57 45 60 70 61 56 53 65 78 87 95 93 97 97 98 91 83 81 79 78 80 73 74 85 78 68 73 72 68 68 69 70 75 64 54 66 55 47 43 41 56 72 71 71 70 66 62 59 54 50 44 37 34 37 37 35 35 33 32 31 28 24 21 19 18
106 219 100 72 62 36 24 35 74 93 100 98 98 92 91 90 90 85 86 85 69 52 56 64 68 63 61 62 66 74 77 91 92 96 93 91 91 86 78 76 81 86 80 78 77 68 64 64 58 60 58 63 58 52 65 72 63 48 51 48 72 72 72 75 73 68 63 59 53 50 48 41 36 30 32 35 32 30 28 26 25 22 20 19 17
159 140 107 85 75 73 62 58 62 90 95 95 99 97 86 94 86 83 84 82 65 75 71 68 69 72 73 69 75 75 80 80 99 94 93 94 89 84 89 82 78 84 79 72 71 64 66 60 48 56 47 52 55 33 49 55 46 51 54 57 69 68 69 71 71 69 67 59 52 50 46 43 37 36 30 29 29 27 25 24 23 20 18 17 16
150 126 118 113 93 85 79 79 60 89 91 94 95 96 92 94 96 76 77 77 76 60 73 65 66 69 74 73 74 79 78 82 83 99 91 92 93 88 72 70 69 71 75 66 76 67 66 59 39 66 59 51 54 44 49 56 49 55 48 50 61 69 67 68 63 61 60 58 52 46 45 42 36 37 32 29 22 21 22 21 20 19 16 16 16
146 137 124 117 103 98 97 94 80 91 89 99 84 86 99 91 83 87 76 74 81 71 52 66 70 70 69 69 68 75 76 74 79 89 95 88 90 86 77 76 79 79 76 80 74 66 67 65 43 51 77 49 52 48 40 58 61 66 58 61 65 68 68 63 60 59 54 56 49 44 41 38 36 34 32 30 25 17 16 18 17 15 13 13 15
144 149 133 123 116 112 115 109 104 95 105 101 104 101 92 87 90 86 80 79 79 74 64 64 68 70 66 71 68 73 74 75 76 80 92 89 84 83 77 79 83 86 79 68 67 63 70 79 56 44 64 84 64 61 52 63 76 72 70 68 63 68 65 63 60 61 57 55 46 41 38 34 33 32 31 26 23 18 12 14 13 11 9 9 14
143 143 140 139 134 131 127 121 120 115 110 108 107 108 101 94 86 82 81 78 70 66 63 64 67 63 68 70 69 75 74 77 78 84 87 84 84 86 82 76 80 78 77 72 69 60 62 68 77 50 51 68 61 62 72 80 82 79 72 72 68 68 65 64 62 56 54 50 43 38 31 32 34 30 27 25 20 17 16 9 7 8 5 6 12
145 145 138 134 129 129 130 128 127 128 124 117 111 104 102 97 90 86 81 75 65 60 60 67 63 69 68 71 73 74 75 74 76 79 89 88 85 81 80 68 75 82 82 76 68 62 67 61 78 75 61 61 72 64 84 97 89 84 77 68 72 72 69 65 61 58 52 50 46 34 36 31 31 28 26 22 16 17 14 12 9 6 359 1 7
148 146 140 141 139 135 138 133 134 132 127 124 123 113 105 107 106 98 81 67 63 73 59 63 63 68 65 69 70 73 72 76 75 79 86 88 88 82 81 69 70 80 79 74 63 57 64 70 56 66 69 60 47 45 50 92 87 84 85 68 64 74 71 68 61 55 50 43 36 35 34 24 31 22 23 16 17 13 13 12 10 3 3 357 2
157 152 147 151 156 149 148 147 147 141 139 137 135 135 129 112 86 96 102 93 91 82 73 61 63 63 65 66 67 70 73 76 72 83 89 90 86 88 84 72 73 79 82 82 82 73 60 74 85 60 68 69 39 13 10 47 107 79 68 79 65 43 73 75 64 53 46 37 37 40 27 29 23 21 11 12 14 11 12 11 6 4 3 360 359
174 163 157 162 162 156 153 150 152 153 148 142 137 128 109 130 131 124 114 102 98 96 92 67 71 66 64 65 68 69 73 74 74 81 85 92 94 86 82 87 88 88 87 86 73 65 57 48 61 71 41 76 59 14 346 73 33 129 127 81 32 13 61 63 63 49 46 39 41 43 30 29 22 13 7 13 11 10 12 8 5 6 3 4 1
169 171 162 160 161 162 156 154 154 151 135 122 121 117 104 87 106 118 114 101 51 69 84 86 78 78 65 62 64 68 74 73 74 81 90 87 91 93 89 88 78 92 88 70 64 59 52 57 48 102 91 58 86 34 25 32 132 123 116 85 17 6 301 15 20 44 40 40 39 39 32 25 14 11 6 11 11 5 6 4 6 7 6 7 7
170 167 166 162 162 162 157 145 136 124 117 105 105 100 98 93 81 98 85 91 116 95 83 72 73 75 66 60 56 66 70 79 77 86 87 84 90 93 95 85 77 69 89 92 76 70 57 52 61 56 97 75 42 40 33 34 82 113 37 98 170 120 359 333 2 298 26 60 43 38 31 23 8 6 8 17 6 3 0 3 8 6 7 8 11
176 170 168 164 161 161 152 143 134 126 117 123 123 121 109 98 101 92 100 96 82 97 93 67 61 78 84 62 59 62 77 83 80 80 87 89 86 92 90 86 85 76 86 87 80 75 67 64 63 74 59 114 81 80 34 37 46 33 138 102 38 37 177 262 3 291 353 26 14 31 27 22 4 2 7 2 4 5 359 2 4 6 8 11 12
178 173 165 156 151 145 137 131 123 125 132 136 140 134 130 131 132 128 127 120 120 125 125 130 117 101 102 99 67 63 80 81 76 81 84 91 88 88 91 91 85 79 76 88 93 82 68 68 46 86 79 58 115 92 73 30 49 43 49 75 138 164 179 253 87 307 339 83 359 25 23 20 360 353 356 3 6 354 359 355 1 4 7 13 14
178 162 155 149 146 143 141 141 140 133 139 144 147 136 134 141 141 140 139 139 131 91 87 96 117 111 102 91 85 65 65 85 74 79 84 87 90 84 85 86 88 88 89 89 81 79 74 67 58 72 73 96 94 96 97 98 48 40 40 55 61 56 95 118 177 95 357 321 14 17 351 357 357 339 347 1 356 356 343 354 356 3 6 17 18
164 157 155 150 149 150 145 145 142 143 150 153 150 153 139 138 127 128 130 133 131 136 139 124 110 117 100 94 90 75 65 69 83 76 79 84 89 86 89 91 90 83 85 80 90 93 92 72 71 85 82 68 87 110 100 47 105 64 34 65 67 59 58 61 80 146 146 271 308 331 9 339 336 316 332 343 357 346 337 342 352 1 9 18 20
166 164 162 155 148 147 145 143 146 150 153 158 151 150 145 139 133 129 116 112 122 126 132 122 116 116 102 92 89 84 75 65 69 81 76 81 82 93 91 91 90 87 87 87 81 80 84 90 80 72 75 68 69 93 93 80 82 128 114 65 70 72 66 69 50 65 120 68 296 348 315 317 307 303 330 301 331 333 334 336 345 9 24 20 22
164 152 151 148 149 149 149 151 152 158 157 154 151 140 142 137 133 136 130 133 130 126 131 126 121 121 107 106 101 94 90 83 71 73 81 75 85 86 90 93 93 93 90 97 97 87 84 83 83 94 94 89 75 80 96 99 88 81 81 130 92 52 46 30 30 34 25 101 168 288 319 338 342 311 325 348 348 342 347 343 356 28 32 31 23
159 154 154 157 154 153 153 156 159 156 159 154 147 145 144 150 138 143 138 140 141 138 134 129 129 125 121 119 112 109 100 97 92 76 77 88 86 87 94 92 92 94 98 98 102 105 99 96 96 91 85 96 92 93 86 77 81 73 65 76 91 104 142 127 142 83 120 120 12 303 299 280 266 304 289 333 323 318 335 344 30 33 40 26 25